User: anonymous   Login
Location: Ostrava
(49.8330°N, 18.2830°E)
Time: 23:52:11
(UTC+02:00)
Language:

Cosmos 2221 - Orbit

View from above orbital plane
View from above orbital plane
View from above satellite
View from above satellite

Ground track
Ground track

The orbit data is extracted from the following two-line orbital elements,

1 22236U 92080A   16152.19980056  .00000319  00000-0  32441-4 0  9998
2 22236  82.5102  59.9206 0016618 181.6133 178.5034 14.87389731270537
Epoch (UTC): 31 May 2016 04:47:42
Eccentricity: 0.0016618
inclination: 82.5102°
perigee height: 594 km
apogee height: 618 km
right ascension of ascending node: 59.9206°
argument of perigee: 181.6133°
revolutions per day: 14.87389731
mean anomaly at epoch: 178.5034°
orbit number at epoch: 27053

The dashed part of the orbit path shows where the satellite is in the earth's shadow,  

DLR